Weather History for Luxor, Egypt

Change the Weather History Date:

Wednesday, September 18, 2013

  Actual Average Record
Temperature  
Mean Temperature 90 °F -  
Max Temperature 106 °F 94 °F 109 °F (2003)
Min Temperature 73 °F 68 °F 69 °F (1997)
Cooling Degree Days 24    
Growing Degree Days 40 (Base 50)    
Moisture  
Dew Point 56 °F    
Average Humidity 30    
Maximum Humidity 38    
Minimum Humidity 16    
Precipitation  
Precipitation 0.00 in 0.00 in - ()
Sea Level Pressure  
Sea Level Pressure 29.77 in    
Wind  
Wind Speed 2 mph ()    
Max Wind Speed 8 mph    
Max Gust Speed -    
Visibility 6.0 miles    
Events      
Averages and records for this station are not official NWS values.
T = Trace of Precipitation, MM = Missing Value Source: Averaged Metar Reports

Daily Weather History Graph

Daily Weather History Graph

Search for Another Location

Airport:

Trip Planner

Search our weather history database for the weather conditions in past years. The results will help you decide how hot, cold, wet, or windy it might be!

Date:

Astronomy

Sep. 18, 2013 Rise Set
Actual Time 5:36 AM EET 5:50 PM EET
Civil Twilight 5:13 AM EET 6:13 PM EET
Nautical Twilight 4:46 AM EET 6:39 PM EET
Astronomical Twilight 4:19 AM EET 7:06 PM EET
Moon 5:00 PM EET (9/18) 4:19 AM EET (9/18)
Length of Visible Light 12h 59m
Length of Day
12h 13m
Waxing Gibbous, 99% of the Moon is Illuminated
Sep 18
Waxing Gibbous
Sep 19
Full
Sep 27
Last Quarter
Oct 5
New
Oct 12
First Quarter

Hourly Weather History & Observations

Time (EET) Temp. Heat Index Dew Point Humidity Pressure Visibility Wind Dir Wind Speed Gust Speed Precip Events Conditions
12:00 AM 84.2 °F - 51.8 °F 33% 29.77 in - South 2.3 mph - N/A   Clear
1:00 AM 80.6 °F - 50.0 °F 34% 29.77 in - Calm Calm - N/A   Clear
2:00 AM 78 °F - 50 °F 26% 29.77 in 6 mi Calm Calm - -  
2:00 AM 78.8 °F - 50.0 °F 36% 29.77 in - Calm Calm - N/A   Clear
3:00 AM 78.8 °F - 48.2 °F 34% 29.77 in - Calm Calm - N/A   Clear
4:00 AM 78.8 °F - 48.2 °F 34% 29.77 in - Calm Calm - N/A   Clear
5:00 AM 77.0 °F - 48.2 °F 36% 29.77 in - Calm Calm - N/A   Clear
6:00 AM 75.2 °F - 48.2 °F 38% 29.80 in - SSE 2.3 mph - N/A   Clear
7:00 AM 80.6 °F - 50.0 °F 34% 29.80 in - Calm Calm - N/A   Clear
8:00 AM 87 °F - 53 °F 22% 29.82 in 6 mi ESE 2.3 mph - -  
8:00 AM 87.8 °F 85.7 °F 53.6 °F 31% 29.83 in - ESE 2.3 mph - N/A   Clear
9:00 AM 93.2 °F 91.3 °F 55.4 °F 28% 29.83 in - Calm Calm - N/A   Clear
10:00 AM 95.0 °F 95.2 °F 60.8 °F 32% 29.83 in - North 3.5 mph - N/A   Clear
11:00 AM 98.6 °F 101.0 °F 64.4 °F 32% 29.80 in - North 4.6 mph - N/A   Clear
12:00 PM 100.4 °F 103.6 °F 64.4 °F 31% 29.77 in - NNE 6.9 mph - N/A   Clear
1:00 PM 104.0 °F 106.6 °F 62.6 °F 26% 29.74 in - North 5.8 mph - N/A   Clear
2:00 PM 105 °F - 62 °F 16% 29.71 in 6 mi NNE 8.1 mph - -  
2:00 PM 104.0 °F 106.6 °F 62.6 °F 26% 29.74 in - NNE 8.1 mph - N/A   Clear
3:00 PM 105.8 °F 108.3 °F 62.6 °F 24% 29.71 in - NNE 6.9 mph - N/A   Clear
4:00 PM 104.0 °F 105.3 °F 60.8 °F 24% 29.71 in - NNE 5.8 mph - N/A   Clear
5:00 PM 102.2 °F 103.6 °F 60.8 °F 26% 29.71 in - NNE 2.3 mph - N/A   Clear
6:00 PM 98.6 °F 100.0 °F 62.6 °F 30% 29.71 in - WNW 4.6 mph - N/A   Clear
7:00 PM 95.0 °F 95.2 °F 60.8 °F 32% 29.74 in - WNW 2.3 mph - N/A   Clear
8:00 PM 92 °F - 59 °F 23% 29.74 in 6 mi NW 2.3 mph - -  
8:00 PM 100.4 °F 100.2 °F 59.0 °F 25% 29.74 in - NW 2.3 mph - N/A   Clear
9:00 PM 93.2 °F 91.9 °F 57.2 °F 30% 29.77 in - Calm Calm - N/A   Clear
10:00 PM 89.6 °F 88.1 °F 57.2 °F 33% 29.77 in - SSE 2.3 mph - N/A   Clear
11:00 PM 89.6 °F 87.7 °F 55.4 °F 31% 29.77 in - Calm Calm - N/A   Clear